WAT5464 BKPR-LQSA

Flight info

Callsign WAT5464
Flight time N/A
Altitude 32000
Route DOLEV1D DOLEV L608 KEB
Aircraft P180/L-SBDFGM3RWXY/LB1

Departure

Time N/A
Airport Priština Adem Jashari International Airport (BKPR)

Arrival

Time 2026-04-21 01:00
Airport Sarajevo International Airport (LQSA)
Time Latitude Longitude Altitude Speed Heading
2026-04-21 01:00 43.82518 18.33692 1680 ft 0 kts 28°
2026-04-21 01:05 43.82519 18.33692 1680 ft 1 kts 35°
2026-04-21 01:05 43.82493 18.33696 1683 ft 9 kts 206°
2026-04-21 01:05 43.82433 18.33691 1684 ft 10 kts 114°
2026-04-21 01:05 43.82400 18.33779 1682 ft 10 kts 117°
2026-04-21 01:06 43.82360 18.33888 1688 ft 15 kts 117°
2026-04-21 01:06 43.82311 18.34017 1691 ft 15 kts 117°
2026-04-21 01:06 43.82263 18.34148 1695 ft 15 kts 117°
2026-04-21 01:06 43.82232 18.34231 1698 ft 15 kts 118°
2026-04-21 01:07 43.82176 18.34376 1702 ft 18 kts 118°
2026-04-21 01:07 43.82121 18.34523 1707 ft 16 kts 116°
2026-04-21 01:07 43.82060 18.34622 1709 ft 12 kts 158°
2026-04-21 01:07 43.81969 18.34606 1711 ft 16 kts 214°
2026-04-21 01:08 43.81952 18.34501 1708 ft 13 kts 300°
2026-04-21 01:08 43.82106 18.34091 1701 ft 88 kts 298°
2026-04-21 01:08 43.82489 18.33047 1744 ft 141 kts 297°
2026-04-21 01:08 43.82955 18.31770 2110 ft 162 kts 297°
2026-04-21 01:09 43.83528 18.30240 2324 ft 195 kts 298°
2026-04-21 01:09 43.84189 18.28503 2877 ft 206 kts 297°
2026-04-21 01:09 43.84853 18.26738 3589 ft 207 kts 297°
2026-04-21 01:09 43.85522 18.24960 4286 ft 209 kts 298°
2026-04-21 01:10 43.85992 18.22985 4823 ft 222 kts 270°
2026-04-21 01:10 43.85623 18.20969 5691 ft 217 kts 249°
2026-04-21 01:10 43.85000 18.18319 6650 ft 217 kts 249°
2026-04-21 01:10 43.84658 18.17018 7162 ft 217 kts 252°
2026-04-21 01:11 43.84272 18.14981 7869 ft 220 kts 258°
2026-04-21 01:11 43.83993 18.12857 8597 ft 222 kts 260°
2026-04-21 01:11 43.83709 18.10771 9358 ft 224 kts 259°
2026-04-21 01:11 43.83399 18.08654 10098 ft 225 kts 259°
2026-04-21 01:12 43.83092 18.06532 10843 ft 225 kts 260°
2026-04-21 01:12 43.82785 18.04400 11546 ft 226 kts 260°
2026-04-21 01:12 43.82478 18.02254 12257 ft 228 kts 261°
2026-04-21 01:12 43.82372 18.00088 13002 ft 226 kts 282°
2026-04-21 01:13 43.83031 17.98115 13733 ft 229 kts 304°
2026-04-21 01:13 43.84201 17.96592 14414 ft 236 kts 324°
2026-04-21 01:13 43.85775 17.95799 15035 ft 248 kts 347°
2026-04-21 01:13 43.87534 17.96003 15654 ft 265 kts 12°
2026-04-21 01:14 43.89151 17.97352 16279 ft 282 kts 40°
2026-04-21 01:14 43.90215 17.99701 16874 ft 297 kts 69°
2026-04-21 01:14 43.90446 18.02572 17471 ft 305 kts 98°
2026-04-21 01:14 43.89763 18.05338 18093 ft 305 kts 126°
2026-04-21 01:15 43.88520 18.07726 18643 ft 310 kts 122°
2026-04-21 01:15 43.87743 18.10568 19005 ft 327 kts 103°
2026-04-21 01:15 43.87580 18.13806 19025 ft 349 kts 84°
2026-04-21 01:15 43.88051 18.17196 19028 ft 368 kts 74°
2026-04-21 01:16 43.88661 18.20726 19031 ft 386 kts 74°
2026-04-21 01:16 43.89367 18.24385 19033 ft 400 kts 72°
2026-04-21 01:16 43.90135 18.28119 19048 ft 397 kts 72°
2026-04-21 01:16 43.90849 18.31773 19034 ft 392 kts 73°